Location: Althorst
(53.6379°N, 10.7715°E)
Time: 16:31:10
(UTC+00:00)

SL-4 R/B - Pass Details

Date: 10 December 2019
Orbit: 428 x 667 km, 51.6° (Epoch: 23 January)

Event Time Altitude Azimuth Distance (km) Brightness Sun altitude
Rises 17:06:23 0° 255° (WSW) 2,520 7.2 -17.8°
Reaches altitude 10° 17:08:29 10° 252° (WSW) 1,677 5.8 -18.1°
Maximum altitude 17:12:14 62° 171° (S) 584 2.1 -18.6°
Enters shadow 17:13:16 44° 113° (ESE) 739 2.3 -18.8°
